Meteo pe oră la Bolshoe Gorohovische

Astăzi, 8 Mai, Sâmbătă

Timp Temperatura Precipitaţii Vânt Presiune Umiditate
00:00 +4°C° 0 mm 3 m/s 736 mmHg 95%
01:00 +4°C° 0 mm 3 m/s 737 mmHg 94%
02:00 +3°C° 0 mm 3 m/s 737 mmHg 94%
03:00 +3°C° 0 mm 3 m/s 737 mmHg 94%
04:00 +2°C° 0 mm 3 m/s 738 mmHg 95%
05:00 +3°C° 0 mm 2 m/s 738 mmHg 95%
06:00 +3°C° 0 mm 3 m/s 738 mmHg 91%
07:00 +3°C° 0 mm 4 m/s 739 mmHg 86%
08:00 +3°C° 0 mm 5 m/s 739 mmHg 82%
09:00 +5°C° 0 mm 5 m/s 740 mmHg 75%
10:00 +5°C° 0 mm 6 m/s 740 mmHg 69%
11:00 +5°C° 0 mm 6 m/s 740 mmHg 63%
12:00 +5°C° 0 mm 6 m/s 741 mmHg 62%
13:00 +5°C° 0 mm 6 m/s 741 mmHg 62%
14:00 +6°C° 0 mm 5 m/s 742 mmHg 61%
15:00 +6°C° 0 mm 5 m/s 742 mmHg 59%
16:00 +7°C° 0 mm 5 m/s 742 mmHg 57%
17:00 +8°C° 0 mm 5 m/s 743 mmHg 54%
18:00 +6°C° 0 mm 5 m/s 743 mmHg 61%
19:00 +5°C° 0 mm 4 m/s 744 mmHg 68%
20:00 +3°C° 0 mm 3 m/s 744 mmHg 75%
21:00 +3°C° 0 mm 3 m/s 745 mmHg 80%
22:00 +2°C° 0 mm 3 m/s 745 mmHg 85%
23:00 +1°C° 0 mm 3 m/s 745 mmHg 90%

Mâine, 9 Mai, Duminică

Timp Temperatura Precipitaţii Vânt Presiune Umiditate
00:00 +1°C° 0 mm 3 m/s 746 mmHg 91%
01:00 +1°C° 0 mm 3 m/s 746 mmHg 92%
02:00 +1°C° 0 mm 2 m/s 746 mmHg 92%
03:00 +1°C° 0 mm 2 m/s 747 mmHg 93%
04:00 +1°C° 0 mm 2 m/s 747 mmHg 93%
05:00 +1°C° 0 mm 2 m/s 748 mmHg 94%
06:00 +3°C° 0 mm 2 m/s 748 mmHg 87%
07:00 +5°C° 0 mm 2 m/s 749 mmHg 80%
08:00 +7°C° 0 mm 2 m/s 749 mmHg 73%
09:00 +8°C° 0 mm 2 m/s 750 mmHg 66%
10:00 +9°C° 0 mm 2 m/s 750 mmHg 60%
11:00 +11°C° 0 mm 3 m/s 750 mmHg 54%
12:00 +11°C° 0 mm 3 m/s 750 mmHg 51%
13:00 +12°C° 0 mm 3 m/s 750 mmHg 48%
14:00 +13°C° 0 mm 3 m/s 750 mmHg 45%
15:00 +13°C° 0 mm 3 m/s 750 mmHg 48%
16:00 +12°C° 0 mm 3 m/s 750 mmHg 50%
17:00 +12°C° 0 mm 3 m/s 750 mmHg 52%
18:00 +11°C° 0 mm 3 m/s 750 mmHg 58%
19:00 +9°C° 0 mm 2 m/s 750 mmHg 63%
20:00 +7°C° 0 mm 2 m/s 750 mmHg 69%
21:00 +7°C° 0 mm 2 m/s 751 mmHg 70%
22:00 +5°C° 0 mm 3 m/s 751 mmHg 72%
23:00 +5°C° 0 mm 3 m/s 751 mmHg 73%

Poimâine, 10 Mai, Luni

Timp Temperatura Precipitaţii Vânt Presiune Umiditate
00:00 +5°C° 0 mm 3 m/s 751 mmHg 73%
01:00 +5°C° 0 mm 3 m/s 751 mmHg 72%
02:00 +5°C° 0 mm 3 m/s 751 mmHg 72%
03:00 +4°C° 0 mm 3 m/s 751 mmHg 75%
04:00 +4°C° 0 mm 3 m/s 752 mmHg 78%
05:00 +3°C° 0 mm 3 m/s 752 mmHg 80%
06:00 +5°C° 0 mm 3 m/s 752 mmHg 74%
07:00 +8°C° 0 mm 4 m/s 752 mmHg 68%
08:00 +11°C° 0 mm 4 m/s 752 mmHg 62%
09:00 +12°C° 0 mm 5 m/s 752 mmHg 59%
10:00 +14°C° 0 mm 5 m/s 752 mmHg 55%
11:00 +15°C° 0 mm 6 m/s 752 mmHg 52%
12:00 +16°C° 0 mm 6 m/s 752 mmHg 50%
13:00 +16°C° 0 mm 5 m/s 752 mmHg 49%
14:00 +17°C° 0 mm 5 m/s 752 mmHg 48%
15:00 +17°C° 0 mm 5 m/s 752 mmHg 50%
16:00 +17°C° 0 mm 5 m/s 752 mmHg 53%
17:00 +18°C° 0 mm 4 m/s 751 mmHg 56%
18:00 +15°C° 0 mm 4 m/s 751 mmHg 62%
19:00 +13°C° 0 mm 4 m/s 752 mmHg 68%
20:00 +11°C° 0 mm 3 m/s 752 mmHg 74%
21:00 +10°C° 0 mm 3 m/s 752 mmHg 75%
22:00 +9°C° 0 mm 3 m/s 752 mmHg 77%
23:00 +9°C° 0 mm 3 m/s 752 mmHg 79%

11 Mai, Marţi

Timp Temperatura Precipitaţii Vânt Presiune Umiditate
00:00 +8°C° 0 mm 3 m/s 752 mmHg 80%
01:00 +7°C° 0 mm 4 m/s 752 mmHg 82%
02:00 +6°C° 0 mm 4 m/s 752 mmHg 83%
03:00 +6°C° 0 mm 4 m/s 752 mmHg 83%
04:00 +7°C° 0 mm 3 m/s 752 mmHg 83%
05:00 +7°C° 0 mm 3 m/s 752 mmHg 83%
06:00 +7°C° 0 mm 4 m/s 752 mmHg 77%
07:00 +9°C° 0 mm 5 m/s 752 mmHg 71%
08:00 +12°C° 0 mm 5 m/s 752 mmHg 65%
09:00 +14°C° 0 mm 5 m/s 752 mmHg 59%
10:00 +15°C° 0 mm 5 m/s 752 mmHg 53%
11:00 +16°C° 0 mm 6 m/s 752 mmHg 47%
12:00 +17°C° 0 mm 6 m/s 752 mmHg 47%
13:00 +19°C° 0 mm 5 m/s 752 mmHg 46%
14:00 +19°C° 0 mm 5 m/s 751 mmHg 45%
15:00 +19°C° 0 mm 5 m/s 751 mmHg 48%
16:00 +19°C° 0 mm 5 m/s 751 mmHg 51%
17:00 +19°C° 0 mm 5 m/s 750 mmHg 55%
18:00 +17°C° 0 mm 4 m/s 750 mmHg 61%
19:00 +14°C° 0 mm 4 m/s 750 mmHg 67%
20:00 +12°C° 0 mm 4 m/s 750 mmHg 74%
21:00 +11°C° 0 mm 4 m/s 750 mmHg 76%
22:00 +10°C° 0 mm 4 m/s 750 mmHg 78%
23:00 +10°C° 0 mm 4 m/s 750 mmHg 80%

12 Mai, Miercuri

Timp Temperatura Precipitaţii Vânt Presiune Umiditate
00:00 +9°C° 0 mm 3 m/s 750 mmHg 82%
01:00 +9°C° 0 mm 3 m/s 749 mmHg 84%
02:00 +8°C° 0 mm 3 m/s 749 mmHg 87%
03:00 +8°C° 0 mm 3 m/s 749 mmHg 89%
04:00 +8°C° 0 mm 3 m/s 749 mmHg 91%
05:00 +8°C° 0 mm 3 m/s 749 mmHg 93%
06:00 +10°C° 0 mm 3 m/s 749 mmHg 88%
07:00 +12°C° 0 mm 4 m/s 749 mmHg 82%
08:00 +14°C° 0 mm 4 m/s 748 mmHg 77%
09:00 +16°C° 0 mm 5 m/s 748 mmHg 72%
10:00 +17°C° 0 mm 5 m/s 748 mmHg 67%
11:00 +20°C° 0 mm 6 m/s 747 mmHg 61%
12:00 +20°C° 0 mm 6 m/s 747 mmHg 60%
13:00 +21°C° 0 mm 7 m/s 747 mmHg 58%
14:00 +21°C° 0 mm 7 m/s 746 mmHg 56%
15:00 +20°C° 0.1 mm 7 m/s 746 mmHg 62%
16:00 +18°C° 0.1 mm 7 m/s 746 mmHg 67%
17:00 +17°C° 0.1 mm 7 m/s 746 mmHg 73%
18:00 +15°C° 0 mm 6 m/s 746 mmHg 77%
19:00 +14°C° 0 mm 5 m/s 746 mmHg 81%
20:00 +12°C° 0 mm 4 m/s 746 mmHg 84%
21:00 +11°C° 0 mm 4 m/s 746 mmHg 88%
22:00 +10°C° 0 mm 3 m/s 746 mmHg 92%
23:00 +9°C° 0 mm 3 m/s 746 mmHg 96%

13 Mai, Joi

Timp Temperatura Precipitaţii Vânt Presiune Umiditate
00:00 +9°C° 0 mm 3 m/s 746 mmHg 96%
01:00 +8°C° 0 mm 3 m/s 746 mmHg 97%
02:00 +8°C° 0 mm 3 m/s 746 mmHg 97%
03:00 +8°C° 0 mm 3 m/s 745 mmHg 97%
04:00 +8°C° 0 mm 3 m/s 745 mmHg 97%
05:00 +8°C° 0 mm 3 m/s 745 mmHg 96%
06:00 +9°C° 0 mm 3 m/s 745 mmHg 90%
07:00 +11°C° 0 mm 4 m/s 744 mmHg 84%
08:00 +13°C° 0 mm 4 m/s 744 mmHg 77%
09:00 +14°C° 0 mm 4 m/s 743 mmHg 72%
10:00 +17°C° 0 mm 4 m/s 743 mmHg 67%
11:00 +18°C° 0 mm 4 m/s 742 mmHg 61%
12:00 +17°C° 0.4 mm 4 m/s 741 mmHg 66%
13:00 +17°C° 0.4 mm 4 m/s 741 mmHg 72%
14:00 +17°C° 0.4 mm 4 m/s 740 mmHg 77%
15:00 +14°C° 1.7 mm 3 m/s 739 mmHg 83%
16:00 +13°C° 1.7 mm 3 m/s 739 mmHg 90%
17:00 +12°C° 1.7 mm 3 m/s 739 mmHg 96%
18:00 +11°C° 1.5 mm 3 m/s 739 mmHg 96%
19:00 +11°C° 1.5 mm 4 m/s 739 mmHg 95%
20:00 +10°C° 1.5 mm 4 m/s 739 mmHg 95%
21:00 +10°C° 0.4 mm 4 m/s 739 mmHg 96%
22:00 +10°C° 0.4 mm 4 m/s 740 mmHg 96%
23:00 +9°C° 0.4 mm 3 m/s 740 mmHg 96%
Arată mai mult

Formular de consimțământ

Meteoprog și furnizorii noștri de servicii pot stoca și accesa date personale, precum cookies, identificatori de dispozitiv sau alte tehnologii similare pe dispozitivul dumneavoastră și procesa astfel de date pentru a personaliza conținutul și reclamele, dar și pentru a oferi caracteristici de social media și pentru a analiza traficul.

  • Stocarea și/sau accesarea informațiilor pe dispozitivul dumneavoastră

    Cookies, identificatori de dispozitiv sau alte informații pot fi stocate sau accesate pe dispozitiv în scopurile indicate mai sus.

  • Reclame și conținut personalizat, evaluarea reclamelor și a conținutului, informații despre audiențe și dezvoltarea produselor

    Reclamele și conținutul pot fi personalizate pe baza unui profil. Pot fi adăugate date suplimentare pentru a personaliza mai bine reclamele și conținutul. Performanța reclamelor și conținutului poate fi măsurată. Pot fi obținute informații despre utilizatorii care au văzut reclamele și conținutul. Aceste date pot fi utilizate pentru a dezvolta sau îmbunătăți experiența utilizatorilor, sistemele și software-ul.

Dând clic pe ‘Sunt de acord’, permiteți utilizarea cookie-urilor menționate, a identificatorilor de dispozitiv, balizelor web sau altor tehnologii similare. Setările pot fi modificate din browser-ul dispozitivului dumneavoastră.

În anumite scopuri, interesele legitime pot prima asupra consimțământului. Puteți citi mai multe informații în acest sens în Politica privind Confidențialitatea Datelor și Cookie.